Погода в Яани

Китай     29°59′44″N   103°00′22″E
темп.,
°C
ветер,
м/с
пор.,
м/с
влажн.,
%
обл.,
%
осадки,
мм/ч
давл.,
гПа
погр.,
м
17 мая, вт
вт1723:00+14сз0076100 0.0 101610
02:00+14з1180100 0.0 101610
05:00+13з1182100 0.0 101511
08:00+15з1181100 0.0 101678
11:00+14зсз1193100 1.9 1017154
14:00+14в0192100 2.8 1015202
17:00+13в0094100 0.4 1014138
20:00+13зсз0094100 0.5 101416
18 мая, ср
ср1823:00+13зюз1193100 0.0 101612
02:00+13зюз1192100 0.0 101412
05:00+13зюз0092100 0.0 101313
08:00+13с0093100 0.0 101528
11:00+14вюв0091100 0.0 1015150
14:00+14всв0088100 0.0 1015305
17:00+15в0085100 0.0 1014353
20:00+14з1195100 0.9 101623
19 мая, чт
чт1923:00+13з119597 0.9 101718
02:00+13зюз119496 0.9 101610
05:00+13з1193100 0.0 101511
08:00+13зюз1192100 0.1 101619
11:00+15юз0088100 0.0 1016132
14:00+16в118391 0.0 1014384
17:00+19в227018 0.0 1012761
20:00+15в1189100 0.0 101411
20 мая, пт
пт2023:00+15зюз2293100 0.4 101645
02:00+15зюз229288 0.6 101436
05:00+14юз118893 0.0 101219
08:00+16зсз0184100 0.0 1014101
11:00+21всв116652 0.0 1013664
14:00+23в2257100 0.0 10101293
17:00+23всв226078 0.0 10081210
20:00+18всв007895 0.0 100911
21 мая, сб
сб2123:00+17зюз1186100 0.0 101113
02:00+16зюз118981 0.0 101011
05:00+15зюз119066 0.0 100916
08:00+18зюз1180100 0.0 1010134
11:00+23всв126498 0.0 1009958
14:00+25в225264 0.0 10061720
17:00+25в225381 0.0 10051558
20:00+21св1171100 0.1 100613